Location: Dana
(41.8364°N, 106.7042°W)
Time: 05:03:29
(UTC+00:00)

Injun/Solrad 3 - All Passes

Search period start: 10 May 2026 00:00
Search period end: 20 May 2026 00:00
Orbit: 868 x 988 km, 66.8° (Epoch: 9 May)

Date Brightness Start Highest point End Pass type
(mag) Time Alt. Az. Time Alt. Az. Time Alt. Az.
10 May - 00:53:51 10° WSW 00:59:22 36° NW 01:05:05 10° NNE daylight
10 May - 06:24:54 10° N 06:27:59 14° NNE 06:31:04 10° ENE visible
10 May - 08:09:46 10° NNW 08:16:03 52° NE 08:22:18 10° SE visible
10 May - 09:56:49 10° NW 10:02:15 30° WSW 10:07:41 10° SSW visible
10 May - 23:17:47 10° SSW 23:23:42 64° ESE 23:29:49 10° NE daylight
11 May - 01:05:42 10° W 01:10:42 26° NW 01:15:51 10° NNE daylight
11 May - 06:35:18 10° N 06:39:34 18° NE 06:43:50 10° E visible
11 May - 08:20:43 10° NNW 08:27:11 75° ENE 08:33:37 10° SE visible
11 May - 10:08:38 10° WNW 10:12:59 19° WSW 10:17:21 10° SSW visible
11 May - 21:45:56 10° SE 21:49:06 15° ESE 21:52:19 10° ENE daylight
11 May - 23:28:40 10° SSW 23:34:40 86° WNW 23:40:56 10° NNE daylight
12 May - 01:17:52 10° W 01:22:08 19° NW 01:26:30 10° N daylight
12 May - 06:45:55 10° N 06:51:02 24° NE 06:56:10 10° E visible
12 May - 08:31:46 10° NNW 08:38:13 76° WSW 08:44:38 10° SSE visible
12 May - 10:21:28 10° W 10:23:38 12° W 10:25:49 10° WSW visible
12 May - 21:55:10 10° SSE 21:59:46 24° ESE 22:04:31 10° NE daylight
12 May - 23:39:50 10° SW 23:45:45 58° NW 23:51:55 10° NNE daylight
13 May - 01:30:27 10° WNW 01:33:41 14° NNW 01:36:59 10° N daylight
13 May - 06:56:40 10° NNW 07:02:24 33° NE 07:08:08 10° ESE visible
13 May - 08:42:57 10° NW 08:49:09 51° WSW 08:55:20 10° S visible
13 May - 22:05:08 10° S 22:10:32 36° ESE 22:16:07 10° NE daylight
13 May - 23:51:17 10° WSW 23:56:57 40° NW 00:02:49 10° NNE daylight
14 May - 01:43:47 10° NW 01:45:21 11° NNW 01:46:55 10° NNW daylight
14 May - 05:22:51 10° N 05:25:26 12° NNE 05:28:02 10° NE visible
14 May - 07:07:29 10° NNW 07:13:40 46° NE 07:19:50 10° SE visible
14 May - 08:54:18 10° NW 09:00:00 34° WSW 09:05:40 10° S visible
14 May - 22:15:33 10° S 22:21:23 56° ESE 22:27:26 10° NE daylight
15 May - 00:03:02 10° WSW 00:08:14 29° NW 00:13:37 10° NNE daylight
15 May - 05:33:08 10° N 05:37:03 16° NE 05:40:59 10° ENE visible
15 May - 07:18:24 10° NNW 07:24:49 67° ENE 07:31:13 10° SE visible
15 May - 09:05:58 10° WNW 09:10:46 22° WSW 09:15:33 10° SSW visible
15 May - 20:44:31 10° SE 20:46:54 12° E 20:49:18 10° ENE daylight
15 May - 22:26:19 10° SSW 22:32:20 84° ESE 22:38:36 10° NNE daylight
16 May - 00:15:05 10° W 00:19:38 21° NW 00:24:19 10° N daylight
16 May - 05:43:42 10° N 05:48:34 22° NE 05:53:26 10° E visible
16 May - 07:29:24 10° NNW 07:35:54 86° WSW 07:42:20 10° SSE visible
16 May - 09:18:18 10° WNW 09:21:26 14° W 09:24:35 10° SW visible
16 May - 20:53:16 10° SSE 20:57:32 20° ESE 21:01:54 10° ENE daylight
16 May - 22:37:24 10° SW 22:43:23 67° WNW 22:49:37 10° NNE daylight
17 May - 00:27:31 10° WNW 00:31:10 16° NW 00:34:52 10° N daylight
17 May - 05:54:24 10° NNW 05:59:58 30° NE 06:05:32 10° ESE visible
17 May - 07:40:33 10° NW 07:46:51 59° WSW 07:53:08 10° SSE visible
17 May - 21:03:03 10° S 21:08:16 32° ESE 21:13:38 10° NE daylight
17 May - 22:48:45 10° SW 22:54:32 46° NW 23:00:33 10° NNE daylight
18 May - 00:40:29 10° NW 00:42:47 12° NNW 00:45:06 10° N daylight
18 May - 04:20:54 10° N 04:22:53 11° NNE 04:24:53 10° NE visible
18 May - 06:05:12 10° NNW 06:11:16 41° NE 06:17:19 10° ESE visible
18 May - 07:51:50 10° NW 07:57:44 39° WSW 08:03:36 10° S visible
18 May - 21:13:21 10° S 21:19:05 49° ESE 21:25:03 10° NE daylight
18 May - 23:00:24 10° WSW 23:05:48 32° NW 23:11:22 10° NNE daylight
19 May - 04:30:59 10° N 04:34:32 15° NNE 04:38:06 10° ENE visible
19 May - 06:16:05 10° NNW 06:22:27 59° NE 06:28:48 10° SE visible
19 May - 08:03:23 10° NW 08:08:31 26° WSW 08:13:39 10° SSW visible
19 May - 19:43:50 10° ESE 19:44:42 10° E 19:45:34 10° E daylight
19 May - 21:24:00 10° SSW 21:30:00 74° ESE 21:36:14 10° NNE daylight
19 May - 23:12:21 10° W 23:17:10 24° NW 23:22:07 10° N daylight
